�N����,����,�g�[���i���ԁj���x,�g�[�����x,��g�[���i���ցj���x,����
 2003/10/01, 0:00,23.6,49,22.9,24.8
 2003/10/01, 0:15,23.6,49,22.8,24.8
 2003/10/01, 0:30,23.5,49,22.8,24.8
 2003/10/01, 0:45,23.4,49,22.7,24.8
 2003/10/01, 1:00,23.3,49,22.7,24.8
 2003/10/01, 1:15,23.3,49,22.6,24.7
 2003/10/01, 1:30,23.1,49,22.6,24.7
 2003/10/01, 1:45,23,49,22.5,24.7
 2003/10/01, 2:00,23,49,22.5,24.7
 2003/10/01, 2:15,22.9,50,22.4,24.6
 2003/10/01, 2:30,22.9,50,22.3,24.6
 2003/10/01, 2:45,22.9,49,22.3,24.6
 2003/10/01, 3:00,22.8,50,22.2,24.6
 2003/10/01, 3:15,22.8,50,22.2,24.5
 2003/10/01, 3:30,22.7,50,22.1,24.5
 2003/10/01, 3:45,22.6,50,22.1,24.4
 2003/10/01, 4:00,22.5,50,22,24.4
 2003/10/01, 4:15,22.5,51,22,24.3
 2003/10/01, 4:30,22.4,50,21.9,24.3
 2003/10/01, 4:45,22.4,50,21.8,24.2
 2003/10/01, 5:00,22.2,51,21.7,24.2
 2003/10/01, 5:15,22.2,51,21.7,24.2
 2003/10/01, 5:30,22.2,51,21.7,24.1
 2003/10/01, 5:45,22.1,51,21.6,24.1
 2003/10/01, 6:00,22,51,21.5,24.1
 2003/10/01, 6:15,22.1,53,21.5,24
 2003/10/01, 6:30,22.2,53,21.5,24
 2003/10/01, 6:45,22.4,52,21.5,24
 2003/10/01, 7:00,22.7,51,21.5,23.9
 2003/10/01, 7:15,22.9,50,21.5,23.9
 2003/10/01, 7:30,23,50,21.6,23.9
 2003/10/01, 7:45,23.3,49,21.8,23.9
 2003/10/01, 8:00,23.4,49,22,23.9
 2003/10/01, 8:15,23.5,49,21.8,23.9
 2003/10/01, 8:30,23,44,22,23.8
 2003/10/01, 8:45,22.9,45,21.9,23.8
 2003/10/01, 9:00,23.2,44,22,23.8
 2003/10/01, 9:15,23.5,42,22.1,23.8
 2003/10/01, 9:30,23.8,41,22.2,23.8
 2003/10/01, 9:45,24,41,22.4,23.8
 2003/10/01,10:00,24.3,41,22.5,23.8
 2003/10/01,10:15,24.7,41,22.6,23.8
 2003/10/01,10:30,24.9,40,22.7,23.8
 2003/10/01,10:45,25.2,40,22.8,23.8
 2003/10/01,11:00,25,40,22.5,23.8
 2003/10/01,11:15,24.9,40,22.3,23.8
 2003/10/01,11:30,24.9,40,22.2,23.8
 2003/10/01,11:45,25.4,40,22.7,23.8
 2003/10/01,12:00,25.6,41,23.2,23.8
 2003/10/01,12:15,25.6,40,23.4,23.9
 2003/10/01,12:30,25.7,41,23.5,23.9
 2003/10/01,12:45,25.8,40,23.7,23.9
 2003/10/01,13:00,26,41,23.9,24
 2003/10/01,13:15,26,40,23.9,24
 2003/10/01,13:30,25.9,40,23.9,24.1
 2003/10/01,13:45,26.1,39,24.1,24.1
 2003/10/01,14:00,25.9,39,24.1,24.2
 2003/10/01,14:15,26,38,24.2,24.3
 2003/10/01,14:30,26,38,24.2,24.3
 2003/10/01,14:45,26,38,24.3,24.4
 2003/10/01,15:00,25.9,36,24.4,24.5
 2003/10/01,15:15,26.1,37,24.4,24.6
 2003/10/01,15:30,25.9,38,24.5,24.6
 2003/10/01,15:45,26,39,24.5,24.7
 2003/10/01,16:00,25.9,39,24.6,24.8
 2003/10/01,16:15,25.9,39,24.5,24.8
 2003/10/01,16:30,26,41,24.5,24.9
 2003/10/01,16:45,25.4,40,24.5,25
 2003/10/01,17:00,25,40,23.9,25.1
 2003/10/01,17:15,24.6,41,23.4,25.1
 2003/10/01,17:30,24.4,42,23,25.2
 2003/10/01,17:45,24.2,42,22.8,25.2
 2003/10/01,18:00,24.2,43,22.8,25.2
 2003/10/01,18:15,24.5,43,23.2,25.2
 2003/10/01,18:30,24.5,44,23.3,25.2
 2003/10/01,18:45,24.6,44,23.4,25.2
 2003/10/01,19:00,24.7,45,23.5,25.3
 2003/10/01,19:15,24.9,45,23.5,25.2
 2003/10/01,19:30,25.1,45,23.6,25.3
 2003/10/01,19:45,25.2,45,23.6,25.3
 2003/10/01,20:00,25.1,45,23.6,25.3
 2003/10/01,20:15,25.3,46,23.7,25.3
 2003/10/01,20:30,25.5,47,23.8,25.3
 2003/10/01,20:45,25.4,47,23.8,25.3
 2003/10/01,21:00,25.4,49,23.9,25.4
 2003/10/01,21:15,25.4,49,24,25.4
 2003/10/01,21:30,25.4,49,24,25.4
 2003/10/01,21:45,25.3,50,24,25.4
 2003/10/01,22:00,25.3,50,24,25.4
 2003/10/01,22:15,25.5,51,24.1,25.5
 2003/10/01,22:30,25.5,51,24.1,25.5
 2003/10/01,22:45,25.4,52,24.1,25.5
 2003/10/01,23:00,25.3,51,24.1,25.5
 2003/10/01,23:15,25.2,51,24.1,25.6
 2003/10/01,23:30,25.2,51,24.1,25.6
 2003/10/01,23:45,25.2,51,24.1,25.6
 2003/10/02, 0:00,25.1,52,24.1,25.8
 2003/10/02, 0:15,25.1,52,24,25.8
 2003/10/02, 0:30,25,52,24,25.8
 2003/10/02, 0:45,25,52,23.9,25.8
 2003/10/02, 1:00,24.9,53,23.9,25.7
 2003/10/02, 1:15,24.8,53,23.9,25.7
 2003/10/02, 1:30,24.7,53,23.9,25.7
 2003/10/02, 1:45,24.7,53,23.8,25.7
 2003/10/02, 2:00,24.6,54,23.8,25.7
 2003/10/02, 2:15,24.6,54,23.7,25.7
 2003/10/02, 2:30,24.5,54,23.7,25.6
 2003/10/02, 2:45,24.5,55,23.7,25.6
 2003/10/02, 3:00,24.5,55,23.6,25.6
 2003/10/02, 3:15,24.4,56,23.6,25.6
 2003/10/02, 3:30,24.4,56,23.6,25.6
 2003/10/02, 3:45,24.4,56,23.6,25.5
 2003/10/02, 4:00,24.4,55,23.6,25.5
 2003/10/02, 4:15,24.3,55,23.5,25.5
 2003/10/02, 4:30,24.3,55,23.5,25.5
 2003/10/02, 4:45,24.3,55,23.5,25.5
 2003/10/02, 5:00,24.3,55,23.5,25.4
 2003/10/02, 5:15,24.3,55,23.4,25.4
 2003/10/02, 5:30,24.2,55,23.4,25.4
 2003/10/02, 5:45,24.2,56,23.4,25.4
 2003/10/02, 6:00,24.2,56,23.4,25.3
 2003/10/02, 6:15,24.3,55,23.4,25.4
 2003/10/02, 6:30,24.3,58,23.5,25.3
 2003/10/02, 6:45,24.6,56,23.5,25.3
 2003/10/02, 7:00,24.7,56,23.5,25.3
 2003/10/02, 7:15,24.9,55,23.8,25.3
 2003/10/02, 7:30,25.6,53,23.9,25.4
 2003/10/02, 7:45,25.1,51,23.8,25.4
 2003/10/02, 8:00,24.7,51,23.7,25.4
 2003/10/02, 8:15,24.8,51,23.6,25.4
 2003/10/02, 8:30,24.9,53,23.6,25.4
 2003/10/02, 8:45,25.2,53,23.6,25.4
 2003/10/02, 9:00,25.4,53,23.6,25.4
 2003/10/02, 9:15,25.7,52,23.8,25.4
 2003/10/02, 9:30,25.8,52,23.8,25.4
 2003/10/02, 9:45,25.6,53,23.8,25.4
 2003/10/02,10:00,25.6,54,23.9,25.4
 2003/10/02,10:15,25.7,54,23.9,25.4
 2003/10/02,10:30,25.1,56,23.9,25.4
 2003/10/02,10:45,25.6,56,23.9,25.4
 2003/10/02,11:00,25.1,56,23.8,25.4
 2003/10/02,11:15,25,58,23.7,25.4
 2003/10/02,11:30,25,58,23.7,25.4
 2003/10/02,11:45,25,56,23.8,25.4
 2003/10/02,12:00,25.2,55,23.8,25.4
 2003/10/02,12:15,25.6,54,23.9,25.4
 2003/10/02,12:30,25.4,55,23.9,25.4
 2003/10/02,12:45,25.5,55,24,25.5
 2003/10/02,13:00,25.5,54,24,25.5
 2003/10/02,13:15,25.7,53,24,25.5
 2003/10/02,13:30,25.7,53,24.1,25.5
 2003/10/02,13:45,25.9,53,24.2,25.5
 2003/10/02,14:00,26,52,24.2,25.5
 2003/10/02,14:15,25.6,53,24.2,25.5
 2003/10/02,14:30,25.6,53,24.3,25.6
 2003/10/02,14:45,25.9,52,24.3,25.6
 2003/10/02,15:00,26,52,24.2,25.6
 2003/10/02,15:15,25.8,53,24.1,25.6
 2003/10/02,15:30,25.5,52,24,25.7
 2003/10/02,15:45,25.2,54,24,25.7
 2003/10/02,16:00,25.2,55,24.1,25.7
 2003/10/02,16:15,25.2,55,24.2,25.8
 2003/10/02,16:30,25.2,55,24.2,25.8
 2003/10/02,16:45,25.1,55,24.2,25.8
 2003/10/02,17:00,24.8,56,24.3,25.8
 2003/10/02,17:15,24.5,56,24.2,25.8
 2003/10/02,17:30,24.5,56,24.1,25.9
 2003/10/02,17:45,24.4,56,24.1,25.9
 2003/10/02,18:00,24.1,56,24,25.9
 2003/10/02,18:15,24.4,55,23.9,25.9
 2003/10/02,18:30,24.8,54,24,25.9
 2003/10/02,18:45,25.1,54,24.1,25.9
 2003/10/02,19:00,25.2,54,24.2,25.9
 2003/10/02,19:15,25,53,24.2,25.9
 2003/10/02,19:30,25.2,52,24.2,25.9
 2003/10/02,19:45,25.2,51,24.2,25.9
 2003/10/02,20:00,25.2,51,24.2,25.9
 2003/10/02,20:15,25.2,51,24.2,25.9
 2003/10/02,20:30,25.2,53,24.2,26
 2003/10/02,20:45,25.2,53,24.2,26
 2003/10/02,21:00,25.3,53,24.2,26
 2003/10/02,21:15,25.3,53,24.2,26
 2003/10/02,21:30,25.3,53,24.3,26
 2003/10/02,21:45,25.3,54,24.2,26
 2003/10/02,22:00,25.3,55,24.3,26
 2003/10/02,22:15,25.3,55,24.3,26
 2003/10/02,22:30,25.4,55,24.2,26
 2003/10/02,22:45,25.3,55,24.2,26
 2003/10/02,23:00,25.3,54,24.2,26
 2003/10/02,23:15,25.3,54,24.3,26
 2003/10/02,23:30,25.2,55,24.3,26
 2003/10/02,23:45,25.2,55,24.2,26
 2003/10/03, 0:00,25.1,55,24.2,26
 2003/10/03, 0:15,25,55,24.2,26
 2003/10/03, 0:30,25,55,24.1,26
 2003/10/03, 0:45,24.9,55,24.1,26
 2003/10/03, 1:00,24.8,55,24,26
 2003/10/03, 1:15,24.8,55,24,26
 2003/10/03, 1:30,24.7,55,23.9,25.9
 2003/10/03, 1:45,24.6,54,23.9,25.9
 2003/10/03, 2:00,24.5,55,23.9,25.9
 2003/10/03, 2:15,24.4,55,23.8,25.9
 2003/10/03, 2:30,24.3,55,23.8,25.8
 2003/10/03, 2:45,24.2,55,23.7,25.8
 2003/10/03, 3:00,24.2,55,23.7,25.8
 2003/10/03, 3:15,24.2,55,23.6,25.7
 2003/10/03, 3:30,24.1,55,23.6,25.7
 2003/10/03, 3:45,24,55,23.5,25.6
 2003/10/03, 4:00,24,55,23.5,25.6
 2003/10/03, 4:15,23.9,55,23.4,25.6
 2003/10/03, 4:30,23.9,56,23.4,25.5
 2003/10/03, 4:45,23.8,56,23.4,25.5
 2003/10/03, 5:00,23.8,56,23.4,25.5
 2003/10/03, 5:15,23.7,56,23.3,25.4
 2003/10/03, 5:30,23.7,56,23.3,25.4
 2003/10/03, 5:45,23.7,58,23.2,25.4
 2003/10/03, 6:00,23.7,57,23.2,25.3
 2003/10/03, 6:15,23.1,56,23.2,25.3
 2003/10/03, 6:30,22.7,57,23.1,25.3
 2003/10/03, 6:45,22.7,59,23,25.3
 2003/10/03, 7:00,23,58,23.2,25.3
 2003/10/03, 7:15,22.6,59,23.1,25.2
 2003/10/03, 7:30,22.7,58,23,25.2
 2003/10/03, 7:45,22.9,56,23,25.2
 2003/10/03, 8:00,23,54,23.1,25.1
 2003/10/03, 8:15,23.2,56,23.1,25.1
 2003/10/03, 8:30,23.3,53,23,25
 2003/10/03, 8:45,23.9,53,22.9,25
 2003/10/03, 9:00,24,53,22.9,25
 2003/10/03, 9:15,24.2,52,23,24.9
 2003/10/03, 9:30,24.5,52,23,24.9
 2003/10/03, 9:45,24.4,51,23.1,24.9
 2003/10/03,10:00,24.6,51,23.1,24.9
 2003/10/03,10:15,24.5,50,23.2,24.8
 2003/10/03,10:30,24.6,50,23.2,24.8
 2003/10/03,10:45,24.5,50,23.3,24.8
 2003/10/03,11:00,24.8,50,23.4,24.8
 2003/10/03,11:15,24.9,50,23.5,24.8
 2003/10/03,11:30,25,50,23.5,24.8
 2003/10/03,11:45,25.1,49,23.6,24.9
 2003/10/03,12:00,25,48,23.7,24.9
 2003/10/03,12:15,25,48,23.6,24.9
 2003/10/03,12:30,24.9,49,23.6,24.9
 2003/10/03,12:45,24.9,48,23.6,24.9
 2003/10/03,13:00,25.1,48,23.7,25
 2003/10/03,13:15,25.1,47,23.8,25
 2003/10/03,13:30,25.1,47,23.7,25
 2003/10/03,13:45,25.1,45,23.8,25
 2003/10/03,14:00,25.1,45,23.8,25
 2003/10/03,14:15,25.1,45,23.8,25.1
 2003/10/03,14:30,25.2,44,23.9,25.1
 2003/10/03,14:45,25.2,43,24,25.1
 2003/10/03,15:00,25.2,43,24,25.1
 2003/10/03,15:15,25.1,43,24,25.2
 2003/10/03,15:30,25.1,42,23.9,25.2
 2003/10/03,15:45,25.1,43,23.9,25.2
 2003/10/03,16:00,25.1,42,23.9,25.2
 2003/10/03,16:15,25.2,41,24,25.3
 2003/10/03,16:30,25.2,40,24,25.3
 2003/10/03,16:45,25,39,24,25.3
 2003/10/03,17:00,24.1,39,23.8,25.3
 2003/10/03,17:15,23.9,39,23.7,25.3
 2003/10/03,17:30,23.4,40,23.5,25.3
 2003/10/03,17:45,23.3,39,23.4,25.3
 2003/10/03,18:00,22.9,39,23.2,25.3
 2003/10/03,18:15,23,39,23,25.3
 2003/10/03,18:30,23.8,40,23,25.2
 2003/10/03,18:45,24.1,41,23,25.2
 2003/10/03,19:00,24.3,42,23,25.1
 2003/10/03,19:15,24.5,42,23,25.1
 2003/10/03,19:30,24.4,42,23,25.1
 2003/10/03,19:45,24.4,42,23,25.1
 2003/10/03,20:00,24.5,43,22.9,25.1
 2003/10/03,20:15,24.5,44,22.9,25
 2003/10/03,20:30,24.8,45,22.9,25
 2003/10/03,20:45,25,46,22.8,25
 2003/10/03,21:00,25.1,46,22.8,25
 2003/10/03,21:15,24.9,46,23,25
 2003/10/03,21:30,25.2,49,22.9,24.9
 2003/10/03,21:45,25.3,49,22.8,24.9
 2003/10/03,22:00,25.5,49,22.8,24.9
 2003/10/03,22:15,25.4,49,22.8,24.9
 2003/10/03,22:30,25.4,49,22.8,24.9
 2003/10/03,22:45,25.2,50,22.8,24.9
 2003/10/03,23:00,25.1,50,22.9,25
 2003/10/03,23:15,24.9,50,23,25
 2003/10/03,23:30,24.7,50,23.1,25
 2003/10/03,23:45,24.5,50,23.2,25
 2003/10/04, 0:00,24.4,50,23.3,25
 2003/10/04, 0:15,24.3,50,23.3,25
 2003/10/04, 0:30,24.2,50,23.2,25.1
 2003/10/04, 0:45,24.1,50,23.2,25.1
 2003/10/04, 1:00,24,50,23.2,25.1
 2003/10/04, 1:15,23.9,50,23.1,25.1
 2003/10/04, 1:30,23.8,50,23.1,25.1
 2003/10/04, 1:45,23.7,50,23,25.1
 2003/10/04, 2:00,23.7,51,23,25
 2003/10/04, 2:15,23.6,51,23,25
 2003/10/04, 2:30,23.5,51,22.9,25
 2003/10/04, 2:45,23.5,51,22.9,25
 2003/10/04, 3:00,23.4,51,22.8,25
 2003/10/04, 3:15,23.3,51,22.8,24.9
 2003/10/04, 3:30,23.2,51,22.7,24.9
 2003/10/04, 3:45,23.3,51,22.7,24.9
 2003/10/04, 4:00,23.1,51,22.7,24.8
 2003/10/04, 4:15,23,51,22.6,24.8
 2003/10/04, 4:30,22.9,51,22.6,24.8
 2003/10/04, 4:45,22.9,51,22.5,24.7
 2003/10/04, 5:00,22.9,51,22.5,24.7
 2003/10/04, 5:15,22.8,51,22.5,24.7
 2003/10/04, 5:30,22.7,51,22.4,24.6
 2003/10/04, 5:45,22.6,52,22.4,24.6
 2003/10/04, 6:00,22.6,52,22.3,24.5
 2003/10/04, 6:15,22.6,52,22.3,24.5
 2003/10/04, 6:30,22.7,51,22.2,24.5
 2003/10/04, 6:45,22.7,51,22.2,24.5
 2003/10/04, 7:00,21.8,52,22.1,24.5
 2003/10/04, 7:15,21.7,52,22,24.4
 2003/10/04, 7:30,23.3,48,21.9,24.4
 2003/10/04, 7:45,23,48,22,24.3
 2003/10/04, 8:00,23.2,48,22,24.3
 2003/10/04, 8:15,23.5,47,22.2,24.3
 2003/10/04, 8:30,23.5,47,22.3,24.2
 2003/10/04, 8:45,24.1,43,22.3,24.2
 2003/10/04, 9:00,24.2,41,22.4,24.2
 2003/10/04, 9:15,24.3,41,22.1,24.1
 2003/10/04, 9:30,24.5,41,22.1,24.1
 2003/10/04, 9:45,24.7,41,22.5,24
 2003/10/04,10:00,24.5,40,22.1,24.1
 2003/10/04,10:15,24.9,40,22.6,24.1
 2003/10/04,10:30,25.3,39,22.7,24.1
 2003/10/04,10:45,24.8,35,22.1,24.1
 2003/10/04,11:00,24.4,35,21.4,24
 2003/10/04,11:15,24.5,36,21.3,24
 2003/10/04,11:30,24.4,36,21.3,24
 2003/10/04,11:45,24.6,36,21.3,23.9
 2003/10/04,12:00,24.4,36,21.2,23.9
 2003/10/04,12:15,24.7,36,21.5,23.9
 2003/10/04,12:30,24.3,35,21.6,23.8
 2003/10/04,12:45,24.4,37,21.8,23.8
 2003/10/04,13:00,24.3,38,21.8,23.8
 2003/10/04,13:15,24,39,21.7,23.8
 2003/10/04,13:30,24.3,39,21.7,23.8
 2003/10/04,13:45,24.1,40,21.6,23.8
 2003/10/04,14:00,23.7,42,21.5,23.8
 2003/10/04,14:15,23.4,42,21.3,23.8
 2003/10/04,14:30,23.4,42,21.3,23.8
 2003/10/04,14:45,23.2,44,21.2,23.8
 2003/10/04,15:00,23.1,45,21.1,23.8
 2003/10/04,15:15,22.9,47,20.9,23.8
 2003/10/04,15:30,22.8,48,20.8,23.8
 2003/10/04,15:45,22.6,48,20.6,23.8
 2003/10/04,16:00,22.4,49,20.4,23.8
 2003/10/04,16:15,22.3,49,20.2,23.8
 2003/10/04,16:30,22.2,49,20.3,23.7
 2003/10/04,16:45,21.8,50,19.9,23.7
 2003/10/04,17:00,21.4,51,19.7,23.7
 2003/10/04,17:15,21.2,51,19.4,23.7
 2003/10/04,17:30,20.9,52,19.2,23.6
 2003/10/04,17:45,20.7,53,19.2,23.6
 2003/10/04,18:00,20.6,54,19,23.5
 2003/10/04,18:15,21.5,52,19.6,23.4
 2003/10/04,18:30,22.4,51,19.8,23.4
 2003/10/04,18:45,22.7,51,19.9,23.4
 2003/10/04,19:00,22.9,55,20.1,23.3
 2003/10/04,19:15,23.2,54,20.2,23.3
 2003/10/04,19:30,23.4,53,20.3,23.3
 2003/10/04,19:45,23.6,52,20.4,23.3
 2003/10/04,20:00,23.6,51,20.5,23.3
 2003/10/04,20:15,23.6,51,20.6,23.4
 2003/10/04,20:30,23.6,50,20.6,23.4
 2003/10/04,20:45,23.5,49,20.7,23.4
 2003/10/04,21:00,23.1,47,20.8,23.4
 2003/10/04,21:15,22.5,48,20.9,23.4
 2003/10/04,21:30,22.3,47,21,23.5
 2003/10/04,21:45,22.8,48,21,23.5
 2003/10/04,22:00,23.1,49,21,23.5
 2003/10/04,22:15,23.1,48,21,23.5
 2003/10/04,22:30,23.1,48,21,23.5
 2003/10/04,22:45,23,48,21.1,23.5
 2003/10/04,23:00,23.1,48,21.2,23.6
 2003/10/04,23:15,23.2,49,21.2,23.6
 2003/10/04,23:30,23.3,49,21.1,23.6
 2003/10/04,23:45,23.2,50,21.1,23.7
 2003/10/05, 0:00,23.1,50,21.2,23.7
 2003/10/05, 0:15,23,50,21.3,23.7
 2003/10/05, 0:30,22.9,50,21.4,23.7
 2003/10/05, 0:45,22.9,50,21.4,23.7
 2003/10/05, 1:00,22.8,51,21.4,23.7
 2003/10/05, 1:15,22.9,51,21.4,23.7
 2003/10/05, 1:30,22.7,50,21.4,23.7
 2003/10/05, 1:45,22.6,50,21.4,23.7
 2003/10/05, 2:00,22.5,51,21.4,23.7
 2003/10/05, 2:15,22.4,50,21.4,23.7
 2003/10/05, 2:30,22.3,51,21.4,23.7
 2003/10/05, 2:45,22.3,51,21.3,23.7
 2003/10/05, 3:00,22.2,51,21.3,23.7
 2003/10/05, 3:15,22.1,51,21.3,23.7
 2003/10/05, 3:30,22.1,51,21.2,23.6
 2003/10/05, 3:45,22,51,21.2,23.6
 2003/10/05, 4:00,21.9,51,21.2,23.6
 2003/10/05, 4:15,21.9,51,21.2,23.6
 2003/10/05, 4:30,21.8,51,21.1,23.5
 2003/10/05, 4:45,21.7,51,21.1,23.5
 2003/10/05, 5:00,21.7,52,21.1,23.5
 2003/10/05, 5:15,21.7,52,21,23.5
 2003/10/05, 5:30,21.6,52,21,23.4
 2003/10/05, 5:45,21.5,52,21,23.4
 2003/10/05, 6:00,21.4,52,20.9,23.4
 2003/10/05, 6:15,21.4,52,20.9,23.4
 2003/10/05, 6:30,21.4,52,20.9,23.3
 2003/10/05, 6:45,21.4,52,20.8,23.3
 2003/10/05, 7:00,21.5,52,20.8,23.3
 2003/10/05, 7:15,21.6,52,20.8,23.2
 2003/10/05, 7:30,21.7,52,20.7,23.2
 2003/10/05, 7:45,21.8,52,20.7,23.2
 2003/10/05, 8:00,22,52,20.7,23.2
 2003/10/05, 8:15,22.2,51,20.8,23.2
 2003/10/05, 8:30,22.1,48,20.9,23.1
 2003/10/05, 8:45,22.1,47,21,23.1
 2003/10/05, 9:00,22.2,44,21.1,23.1
 2003/10/05, 9:15,22.5,46,21.2,23.1
 2003/10/05, 9:30,22.6,45,21.2,23.1
 2003/10/05, 9:45,23.1,45,21.4,23.1
 2003/10/05,10:00,22.8,45,21.1,23.1
 2003/10/05,10:15,23,44,21.3,23.1
 2003/10/05,10:30,22.8,44,21.1,23.1
 2003/10/05,10:45,23,44,21.6,23.1
 2003/10/05,11:00,23,44,21.7,23
 2003/10/05,11:15,23.2,43,21.8,23
 2003/10/05,11:30,23.3,43,21.7,23
 2003/10/05,11:45,23.5,43,21.8,23.1
 2003/10/05,12:00,23.2,43,21.6,23.1
 2003/10/05,12:15,23.4,43,21.6,23.1
 2003/10/05,12:30,23.6,44,21.6,23.1
 2003/10/05,12:45,23.6,44,21.4,23.1
 2003/10/05,13:00,23.6,43,21.5,23.1
 2003/10/05,13:15,23.5,43,21.4,23.2
 2003/10/05,13:30,23.3,43,21.3,23.2
 2003/10/05,13:45,23.2,42,21.3,23.3
 2003/10/05,14:00,23.2,42,21.2,23.3
 2003/10/05,14:15,23.2,41,21.3,23.4
 2003/10/05,14:30,23.1,41,21.3,23.4
 2003/10/05,14:45,23.3,41,21.4,23.4
 2003/10/05,15:00,23,40,21.4,23.4
 2003/10/05,15:15,23,42,21.3,23.4
 2003/10/05,15:30,22.8,43,21.1,23.4
 2003/10/05,15:45,22.8,43,21,23.4
 2003/10/05,16:00,22.8,44,21,23.4
 2003/10/05,16:15,22.7,46,21,23.4
 2003/10/05,16:30,22.4,44,20.7,23.4
 2003/10/05,16:45,22.4,45,20.5,23.4
 2003/10/05,17:00,22.1,46,20.4,23.4
 2003/10/05,17:15,22.1,46,20.3,23.4
 2003/10/05,17:30,22,47,20.2,23.4
 2003/10/05,17:45,22.7,46,20.4,23.4
 2003/10/05,18:00,22.7,47,20.7,23.4
 2003/10/05,18:15,22.7,48,20.8,23.4
 2003/10/05,18:30,22.7,47,20.9,23.4
 2003/10/05,18:45,22.9,47,20.9,23.4
 2003/10/05,19:00,23,47,21,23.4
 2003/10/05,19:15,23,46,21,23.4
 2003/10/05,19:30,23,45,21,23.4
 2003/10/05,19:45,23.6,48,21.1,23.4
 2003/10/05,20:00,23.7,49,21.1,23.4
 2003/10/05,20:15,23.8,50,21.1,23.5
 2003/10/05,20:30,23.8,51,21.1,23.5
 2003/10/05,20:45,23.9,51,21.1,23.5
 2003/10/05,21:00,23.9,50,21.2,23.5
 2003/10/05,21:15,23.9,50,21.2,23.6
 2003/10/05,21:30,23.9,50,21.2,23.6
 2003/10/05,21:45,23.9,51,21.3,23.6
 2003/10/05,22:00,23.9,51,21.3,23.6
 2003/10/05,22:15,23.8,52,21.3,23.7
 2003/10/05,22:30,23.8,53,21.3,23.7
 2003/10/05,22:45,23.8,53,21.3,23.7
 2003/10/05,23:00,23.8,53,21.3,23.7
 2003/10/05,23:15,23.8,53,21.3,23.7
 2003/10/05,23:30,23.8,54,21.3,23.7
 2003/10/05,23:45,23.8,54,21.3,23.8
 2003/10/06, 0:00,23.7,52,21.4,23.8
 2003/10/06, 0:15,23.6,52,21.5,23.8
 2003/10/06, 0:30,23.5,52,21.6,23.8
 2003/10/06, 0:45,23.4,51,21.6,23.8
 2003/10/06, 1:00,23.3,52,21.6,23.8
 2003/10/06, 1:15,23.3,52,21.6,23.8
 2003/10/06, 1:30,23.2,52,21.6,23.8
 2003/10/06, 1:45,23.2,52,21.5,23.8
 2003/10/06, 2:00,23.2,53,21.5,23.8
 2003/10/06, 2:15,23.1,53,21.5,23.8
 2003/10/06, 2:30,23,53,21.5,23.8
 2003/10/06, 2:45,23,53,21.4,23.8
 2003/10/06, 3:00,22.9,52,21.4,23.8
 2003/10/06, 3:15,22.9,52,21.4,23.8
 2003/10/06, 3:30,22.8,51,21.4,23.8
 2003/10/06, 3:45,22.8,51,21.4,23.8
 2003/10/06, 4:00,22.7,52,21.4,23.7
 2003/10/06, 4:15,22.6,52,21.4,23.7
 2003/10/06, 4:30,22.6,52,21.3,23.7
 2003/10/06, 4:45,22.6,52,21.3,23.7
 2003/10/06, 5:00,22.5,52,21.3,23.7
 2003/10/06, 5:15,22.5,52,21.3,23.7
 2003/10/06, 5:30,22.5,53,21.2,23.6
 2003/10/06, 5:45,22.5,56,21.2,23.6
 2003/10/06, 6:00,22.5,55,21.2,23.6
 2003/10/06, 6:15,22.5,54,21.1,23.6
 2003/10/06, 6:30,22.4,55,21.1,23.6
 2003/10/06, 6:45,22.4,55,21,23.6
 2003/10/06, 7:00,22.6,54,21.1,23.6
 2003/10/06, 7:15,22.5,55,21.1,23.6
 2003/10/06, 7:30,22.7,56,21,23.6
 2003/10/06, 7:45,22.5,57,21.1,23.6
 2003/10/06, 8:00,22.4,58,21.1,23.6
 2003/10/06, 8:15,22.3,59,21.2,23.5
 2003/10/06, 8:30,22.2,59,21.4,23.5
 2003/10/06, 8:45,22.1,59,21.2,23.5
 2003/10/06, 9:00,21.8,58,21.1,23.5
 2003/10/06, 9:15,21.7,59,21,23.5
 2003/10/06, 9:30,21.6,59,21,23.5
 2003/10/06, 9:45,21.5,59,20.9,23.4
 2003/10/06,10:00,21.5,60,20.8,23.4
 2003/10/06,10:15,21.4,60,20.8,23.4
 2003/10/06,10:30,21.4,60,20.8,23.4
 2003/10/06,10:45,21.5,60,20.7,23.3
 2003/10/06,11:00,21.4,60,20.7,23.3
 2003/10/06,11:15,21.4,60,20.7,23.2
 2003/10/06,11:30,21.3,60,20.7,23.2
 2003/10/06,11:45,21.3,60,20.6,23.2
 2003/10/06,12:00,21.4,60,20.6,23.1
 2003/10/06,12:15,21.4,60,20.6,23.1
 2003/10/06,12:30,21.5,60,20.6,23.1
 2003/10/06,12:45,21.6,60,20.6,23
 2003/10/06,13:00,21.4,60,20.6,23
 2003/10/06,13:15,21.4,60,20.5,23
 2003/10/06,13:30,21.4,60,20.5,23
 2003/10/06,13:45,21.4,60,20.5,23
 2003/10/06,14:00,21.4,60,20.5,22.9
 2003/10/06,14:15,21.4,60,20.5,22.9
 2003/10/06,14:30,21.4,60,20.5,22.9
 2003/10/06,14:45,21.3,59,20.5,22.9
 2003/10/06,15:00,21.2,60,20.4,22.9
 2003/10/06,15:15,21.2,59,20.4,22.9
 2003/10/06,15:30,21.2,59,20.4,22.8
 2003/10/06,15:45,21.2,59,20.4,22.8
 2003/10/06,16:00,21.2,59,20.4,22.8
 2003/10/06,16:15,21.1,59,20.4,22.8
 2003/10/06,16:30,21.1,59,20.3,22.8
 2003/10/06,16:45,21.1,59,20.3,22.8
 2003/10/06,17:00,21.1,59,20.3,22.7
 2003/10/06,17:15,21.1,60,20.4,22.7
 2003/10/06,17:30,21.3,62,20.3,22.7
 2003/10/06,17:45,21.4,63,20.2,22.7
 2003/10/06,18:00,21.8,63,20.2,22.7
 2003/10/06,18:15,21.9,61,20.1,22.7
 2003/10/06,18:30,21.9,61,20,22.7
 2003/10/06,18:45,21.9,60,20,22.7
 2003/10/06,19:00,21.9,59,19.9,22.7
 2003/10/06,19:15,21.9,57,19.8,22.6
 2003/10/06,19:30,21.9,58,19.8,22.6
 2003/10/06,19:45,21.9,57,19.7,22.6
 2003/10/06,20:00,22,57,19.8,22.6
 2003/10/06,20:15,22.1,57,19.8,22.6
 2003/10/06,20:30,21.9,58,20,22.6
 2003/10/06,20:45,21.8,58,20.2,22.5
 2003/10/06,21:00,21.6,59,20.2,22.5
 2003/10/06,21:15,22,59,20.1,22.5
 2003/10/06,21:30,22.1,59,20,22.5
 2003/10/06,21:45,21.8,59,20.2,22.5
 2003/10/06,22:00,21.7,60,20.2,22.5
 2003/10/06,22:15,21.6,60,20.3,22.5
 2003/10/06,22:30,21.5,60,20.3,22.5
 2003/10/06,22:45,21.6,61,20.3,22.5
 2003/10/06,23:00,21.6,63,20.1,22.5
 2003/10/06,23:15,21.4,63,20.1,22.5
 2003/10/06,23:30,21.2,62,20.1,22.5
 2003/10/06,23:45,21.1,62,20.1,22.5
 2003/10/07, 0:00,21.1,61,20.1,22.5
 2003/10/07, 0:15,21,61,20.1,22.5
 2003/10/07, 0:30,20.9,61,20,22.5
 2003/10/07, 0:45,20.7,61,20,22.5
 2003/10/07, 1:00,20.6,61,20,22.5
 2003/10/07, 1:15,20.7,61,19.9,22.4
 2003/10/07, 1:30,20.5,61,19.9,22.4
 2003/10/07, 1:45,20.4,61,19.9,22.4
 2003/10/07, 2:00,20.4,61,19.8,22.4
 2003/10/07, 2:15,20.3,61,19.8,22.3
 2003/10/07, 2:30,20.2,61,19.8,22.3
 2003/10/07, 2:45,20.2,61,19.7,22.3
 2003/10/07, 3:00,20.2,61,19.7,22.2
 2003/10/07, 3:15,20,61,19.7,22.2
 2003/10/07, 3:30,20.1,61,19.7,22.2
 2003/10/07, 3:45,20,61,19.6,22.1
 2003/10/07, 4:00,19.9,61,19.6,22.1
 2003/10/07, 4:15,19.9,61,19.6,22
 2003/10/07, 4:30,19.9,61,19.5,22
 2003/10/07, 4:45,19.8,61,19.5,22
 2003/10/07, 5:00,19.6,61,19.5,22
 2003/10/07, 5:15,19.6,62,19.5,21.9
 2003/10/07, 5:30,19.6,62,19.5,21.9
 2003/10/07, 5:45,19.5,64,19.5,21.9
 2003/10/07, 6:00,19.5,63,19.5,21.8
 2003/10/07, 6:15,19.5,63,19.4,21.8
 2003/10/07, 6:30,19.6,63,19.3,21.8
 2003/10/07, 6:45,19.9,69,19.2,21.8
 2003/10/07, 7:00,19.8,67,19.1,21.8
 2003/10/07, 7:15,19.7,64,19.2,21.7
 2003/10/07, 7:30,19.9,64,19.1,21.7
 2003/10/07, 7:45,20.1,63,19.1,21.7
 2003/10/07, 8:00,19.8,63,19.1,21.7
 2003/10/07, 8:15,20,63,19.1,21.7
 2003/10/07, 8:30,20.2,62,19.2,21.6
 2003/10/07, 8:45,20,62,19.2,21.6
 2003/10/07, 9:00,20.2,61,19.2,21.6
 2003/10/07, 9:15,20.1,61,19.2,21.6
 2003/10/07, 9:30,20.3,61,19.2,21.6
 2003/10/07, 9:45,20.1,60,19.2,21.6
 2003/10/07,10:00,20.2,60,19.2,21.5
 2003/10/07,10:15,20.3,59,19.2,21.5
 2003/10/07,10:30,20.5,59,19.2,21.5
 2003/10/07,10:45,20.6,59,19.3,21.5
 2003/10/07,11:00,20.7,58,19.4,21.5
 2003/10/07,11:15,20.8,58,19.4,21.4
 2003/10/07,11:30,20.9,58,19.5,21.4
 2003/10/07,11:45,21,57,19.5,21.4
 2003/10/07,12:00,21.1,57,19.6,21.4
 2003/10/07,12:15,21.2,57,19.7,21.5
 2003/10/07,12:30,21.3,56,19.7,21.5
 2003/10/07,12:45,21.3,56,19.8,21.5
 2003/10/07,13:00,21.3,56,19.8,21.5
 2003/10/07,13:15,21.4,55,19.9,21.5
 2003/10/07,13:30,21.4,55,19.9,21.6
 2003/10/07,13:45,21.4,54,20,21.6
 2003/10/07,14:00,21.5,54,20,21.6
 2003/10/07,14:15,21.5,54,20,21.6
 2003/10/07,14:30,21.5,55,20.1,21.6
 2003/10/07,14:45,21.5,55,20.1,21.7
 2003/10/07,15:00,21.5,55,20.2,21.7
 2003/10/07,15:15,21.5,55,20.2,21.7
 2003/10/07,15:30,21.5,54,20.2,21.8
 2003/10/07,15:45,21.5,56,20.3,21.8
 2003/10/07,16:00,21.6,56,20.3,21.8
 2003/10/07,16:15,21.6,56,20.3,21.8
 2003/10/07,16:30,21.5,56,20.3,21.9
 2003/10/07,16:45,21.6,56,20.3,21.9
 2003/10/07,17:00,21.5,56,20.3,21.9
 2003/10/07,17:15,21.3,56,20.3,21.9
 2003/10/07,17:30,21.3,56,20.3,22
 2003/10/07,17:45,21.3,57,20.3,22
 2003/10/07,18:00,21.3,57,20.3,22
 2003/10/07,18:15,21.6,59,20.3,22.1
 2003/10/07,18:30,21.7,59,20.3,22.1
 2003/10/07,18:45,21.7,59,20.3,22.1
 2003/10/07,19:00,21.9,59,20.3,22.1
 2003/10/07,19:15,22,58,20.4,22.2
 2003/10/07,19:30,22.1,58,20.4,22.2
 2003/10/07,19:45,22.1,58,20.4,22.2
 2003/10/07,20:00,22.1,57,20.5,22.3
 2003/10/07,20:15,22.1,57,20.4,22.3